sat.trackr.live / text

‹ back to catalog

FLOCK 4G-25

NORAD 62646 · 2025-009AP

PAYLOAD ACTIVE UNKNOWN

§ Identity

Operator
Country
US
Launch date
2025-01-14
Launch site
AFWTR
Launch vehicle
Mass (kg)
RCS (m²)

Purposes: earth_obs

External: N2YO · Heavens-Above · Gunter

§ Orbital elements

Epoch: 2026-05-25T03:46:40.613664Z

Period
94.18 min
Inclination
97.4010°
Eccentricity
0.0002769
Mean motion
15.28919596 rev/d
Perigee alt
477.1 km
Apogee alt
480.9 km
Semi-major
6,857.2 km
B*
3.5808e-4
RAAN
227.3503°
Arg perigee
66.2324°
Mean anomaly
293.9206°
Rev number
7,540

§ Raw data

FLOCK 4G-251 62646U 25009AP  26145.15741451  .00009989  00000+0  35808-3 0  99972 62646  97.4010 227.3503 0002769  66.2324 293.9206 15.28919596 75408

JSON: /api/v1/satellites/62646 · /tle

For live sub-satellite position, see the globe view (requires WebGL).

§ Visibility from observer

Set your observer location to see the next 7 days of passes ≥ 10°. The values pass through the URL so the page stays shareable.

No JS? Fill the form by hand. The geolocation button needs JavaScript.